{"data":{"norad_id":63232,"intl_designator":"2025-052Y","name":"SPHINX/FRAZIER","alt_names":[],"object_type":"PAYLOAD","status":"ACTIVE","operator":null,"country":"US","launch_date":"2025-03-15","launch_site_code":"AFWTR","launch_vehicle":null,"mission":null,"orbit_class":"UNKNOWN","rcs_meters":null,"size_class":null,"mass_kg":null,"dimensions":null,"purposes":[],"wikipedia_slug":null,"has_3d_model":false,"image_url":null,"decayed_at":null,"tle_current":{"epoch":"2026-09-22T22:28:04.801152Z","epoch_age_seconds":97938,"freshness":"FRESH","line1":"1 63232U 25052Y   26265.93616668  .00004213  00000+0  17193-3 0  9999","line2":"2 63232  97.3801 157.5785 0006387 148.8955 211.2663 15.24940186 84764","mean_motion":15.24940186,"eccentricity":0.0006387,"inclination_deg":97.3801,"raan_deg":157.5785,"arg_perigee_deg":148.8955,"mean_anomaly_deg":211.2663,"bstar":0.00017193,"rev_number":8476,"period_min":94.429933266904,"perigee_km":486.57775408579,"apogee_km":495.3523450439,"semimajor_km":6869.1020495648,"source":"CELESTRAK","updated_at":"2026-09-23T09:00:21.903772Z"}}}